Location: Caltech
(34.1382°N, 118.1253°W)
Time: 21:20:43
(UTC-08:00)

RS-15 - Visible Passes

Search period start: 27 February 2015 00:00
Search period end: 09 March 2015 01:00
Orbit: 1896 x 2148 km, 64.8° (Epoch: 23 February)

Date Brightness Start Highest point End Pass type
(mag) Time Alt. Az. Time Alt. Az. Time Alt. Az.
27 Feb 9.3 01:38:58 24° N 01:38:58 24° N 01:43:30 10° NNE visible
27 Feb 9.6 03:47:27 10° NNW 03:51:10 12° NNW 03:54:38 10° N visible
28 Feb 9.4 01:03:57 23° N 01:03:57 23° N 01:07:39 10° NNE visible
28 Feb 9.6 03:11:40 13° NNW 03:13:51 14° NNW 03:18:45 10° N visible
28 Feb 9.8 05:28:32 10° N 05:33:15 13° NNE 05:38:29 10° NE visible
01 Mar 9.5 00:28:53 21° NNE 00:28:53 21° NNE 00:31:46 10° NNE visible
01 Mar 9.5 02:36:37 17° NNW 02:36:39 17° NNW 02:42:58 10° N visible
01 Mar 9.8 04:52:38 10° N 04:55:53 11° N 04:59:27 10° NNE visible
01 Mar 9.6 23:53:49 18° NNE 23:53:49 18° NNE 23:55:49 10° NNE visible
02 Mar 9.4 02:01:32 20° NNW 02:01:32 20° NNW 02:07:11 10° NNE visible
02 Mar 9.9 04:16:20 10° N 04:18:26 11° N 04:20:40 10° NNE visible
02 Mar 9.8 23:18:42 14° NNE 23:18:42 14° NNE 23:19:48 10° NNE visible
03 Mar 9.4 01:26:25 22° N 01:26:25 22° N 01:31:25 10° NNE visible
03 Mar 9.8 03:38:46 10° NNW 03:40:58 11° N 03:43:05 10° N visible
03 Mar 9.7 05:52:13 10° NNW 05:59:55 21° NNE 06:08:19 10° E visible
03 Mar 9.9 22:43:34 10° NE 22:43:34 10° NE 22:43:39 10° NE visible
04 Mar 9.4 00:51:17 23° N 00:51:17 23° N 00:55:37 10° NNE visible
04 Mar 9.8 03:00:01 10° NNW 03:03:32 12° N 03:06:47 10° N visible
04 Mar 9.8 05:16:26 10° N 05:22:50 17° NNE 05:29:52 10° ENE visible
05 Mar 9.4 00:16:07 23° N 00:16:07 23° N 00:19:47 10° NNE visible
05 Mar 9.7 02:23:49 13° NNW 02:26:11 13° NNW 02:30:53 10° N visible
05 Mar 9.9 04:40:39 10° N 04:45:37 14° NNE 04:51:06 10° NE visible
05 Mar 9.5 23:40:53 21° NNE 23:40:53 21° NNE 23:43:54 10° NNE visible
06 Mar 9.6 01:48:35 16° NNW 01:48:58 16° NNW 01:55:05 10° N visible
06 Mar 9.9 04:04:45 10° N 04:08:15 12° NNE 04:12:06 10° NNE visible
06 Mar 9.5 23:05:38 19° NNE 23:05:38 19° NNE 23:07:58 10° NNE visible
07 Mar 9.5 01:13:20 20° NNW 01:13:20 20° NNW 01:19:19 10° NNE visible
07 Mar 10.0 03:28:33 10° N 03:30:48 11° N 03:33:13 10° NNE visible
07 Mar 9.7 05:40:06 10° NNW 05:49:07 27° NE 05:58:49 10° E visible
07 Mar 9.6 22:30:19 16° NNE 22:30:19 16° NNE 22:31:57 10° NNE visible
08 Mar 9.4 00:38:00 22° NNW 00:38:00 22° NNW 00:43:32 10° NNE visible
08 Mar 9.9 03:51:13 10° NNW 03:53:20 11° N 03:55:24 10° N visible
08 Mar 9.8 06:04:19 10° NNW 06:12:14 21° NNE 06:20:49 10° E visible
08 Mar 9.6 22:54:55 13° NE 22:54:55 13° NE 22:55:50 10° NNE visible
